EDT,Max TemperatureF,Mean TemperatureF,Min TemperatureF,Max Dew PointF,MeanDew PointF,Min DewpointF,Max Humidity, Mean Humidity, Min Humidity, Max Sea Level PressureIn, Mean Sea Level PressureIn, Min Sea Level PressureIn, Max VisibilityMiles, Mean VisibilityMiles, Min VisibilityMiles, Max Wind SpeedMPH, Mean Wind SpeedMPH, Max Gust SpeedMPH,PrecipitationIn, CloudCover, Events, WindDirDegrees
2012-9-1,77,66,55,57,54,51,93,68,43,30.21,30.15,30.10,10,10,10,13,5,18,0.00,0,,325
2012-9-2,77,67,57,57,53,48,86,62,38,30.14,30.09,30.03,10,10,10,15,7,21,0.00,0,,107
2012-9-3,82,70,57,66,60,54,93,72,51,30.03,29.96,29.88,10,9,3,14,4,18,0.23,3,Rain-Thunderstorm,85
2012-9-4,79,71,63,65,63,62,93,76,58,29.93,29.89,29.83,10,8,2,8,1,11,0.00,5,,183
2012-9-5,79,69,58,67,62,56,100,85,69,29.87,29.77,29.68,10,6,0,22,6,32,T,6,Fog-Rain-Thunderstorm,51
2012-9-6,74,62,50,58,53,48,96,70,44,29.88,29.84,29.78,10,8,0,16,4,22,T,2,Fog,279
2012-9-7,64,58,52,56,54,50,93,83,72,29.87,29.83,29.75,10,10,10,13,4,17,0.06,7,Rain,260
2012-9-8,63,55,46,50,46,38,83,63,42,29.80,29.72,29.68,10,10,10,21,8,30,0.00,2,,321
2012-9-9,66,55,43,47,41,30,89,61,32,30.09,29.98,29.81,10,10,10,18,7,25,0.00,1,,317
2012-9-10,71,58,45,51,46,41,100,69,37,30.18,30.12,30.04,10,8,0,15,5,19,0.00,2,Fog,174
2012-9-11,79,66,53,59,54,50,93,68,42,30.04,29.99,29.95,10,10,9,25,8,34,0.00,0,,160
2012-9-12,79,69,59,60,52,42,87,63,39,30.16,30.02,29.94,10,10,10,20,8,25,T,2,,282
2012-9-13,63,56,48,52,48,45,93,80,67,30.27,30.22,30.15,10,10,2,12,3,16,0.08,7,Rain,275
2012-9-14,63,55,47,51,48,45,93,79,64,30.27,30.23,30.19,10,6,0,18,6,26,0.14,7,Fog-Rain,321
2012-9-15,62,51,39,45,39,36,86,63,39,30.35,30.26,30.13,10,10,6,10,3,14,0.00,1,,15
2012-9-16,77,62,46,55,49,41,93,67,41,30.11,29.94,29.86,10,10,10,24,8,29,0.00,1,,180
2012-9-17,64,56,48,59,54,45,93,80,67,29.85,29.77,29.72,10,9,2,15,5,22,0.35,6,Rain-Thunderstorm,267
2012-9-18,54,45,36,44,37,32,86,67,48,29.89,29.77,29.72,10,10,10,20,8,28,0.01,6,Rain,358
2012-9-19,54,45,36,47,38,32,89,74,59,29.98,29.91,29.75,10,10,5,18,8,25,0.19,6,Rain,153
2012-9-20,60,55,49,49,46,43,89,72,55,29.78,29.69,29.63,10,10,7,20,8,26,0.04,7,Rain,205
2012-9-21,57,49,41,48,43,40,92,74,55,29.81,29.75,29.71,10,9,2,23,6,29,0.37,5,Rain,199
2012-9-22,53,46,39,43,39,35,92,73,54,29.95,29.77,29.68,10,10,6,22,7,30,0.09,5,Rain,329
2012-9-23,53,47,40,42,39,36,83,71,59,30.09,30.03,29.95,10,10,3,20,6,32,0.14,7,Rain,253
2012-9-24,58,49,40,47,39,33,93,68,43,30.06,29.81,29.62,10,10,4,24,10,34,0.10,4,Rain,232
2012-9-25,60,48,35,41,38,33,92,65,37,29.91,29.85,29.76,10,8,1,10,4,14,0.00,1,,345
2012-9-26,58,49,39,45,40,37,96,72,47,30.21,30.05,29.91,10,10,6,16,4,22,0.03,4,Rain,296
2012-9-27,60,48,36,44,39,34,92,71,49,30.30,30.25,30.20,10,10,10,10,3,13,0.00,3,,319
2012-9-28,66,51,36,47,40,34,93,65,36,30.20,30.14,30.06,10,8,1,12,4,15,0.00,1,,316
2012-9-29,65,55,44,47,41,38,93,67,40,30.09,30.06,30.02,10,8,1,14,6,20,0.00,1,,12
2012-9-30,64,53,42,43,40,37,92,65,37,30.09,30.03,29.96,10,10,10,13,5,16,0.00,1,,24